Wind_Speed
17 19 16 16 14 11 11 12 11 10 10 10 8 10 14 15 16 17 16 11 6 11 5 6 7 7 4 4 7 4 1 5 5 7 5 1 1 2 6 5 6 3 4 3 4
21 17 18 17 15 12 11 11 10 9 9 9 8 9 12 12 20 23 18 13 6 7 7 6 5 3 3 3 6 5 4 6 5 6 3 2 4 6 5 11 6 5 5 7 9
21 19 17 18 17 14 12 9 8 7 7 7 7 9 10 11 12 15 22 22 18 14 13 9 5 2 3 3 5 4 7 3 4 7 8 5 7 7 3 4 14 5 11 3 12
22 20 19 18 18 14 12 9 7 6 5 6 6 10 10 10 6 2 6 8 18 18 14 10 5 3 3 4 7 3 6 6 6 11 7 3 4 7 9 12 9 12 12 13 9
22 22 20 18 18 15 13 10 8 6 4 5 6 7 9 9 12 4 4 4 8 20 18 11 7 4 4 3 2 4 3 7 7 11 16 18 15 13 18 25 27 27 23 19 18
22 23 22 18 18 16 14 12 9 7 5 5 6 6 8 4 9 16 8 5 6 13 20 17 6 7 3 3 3 2 5 8 8 10 11 10 17 14 19 17 24 22 22 22 21
24 22 24 22 17 16 14 12 10 7 6 6 6 8 11 17 8 6 16 8 7 8 9 12 13 5 1 2 6 5 5 6 7 10 7 9 15 17 28 31 32 36 34 30 26
20 24 26 24 19 16 13 13 8 8 6 6 6 6 8 6 12 14 12 16 12 9 7 4 2 8 3 6 3 3 1 3 4 6 8 11 19 8 16 29 30 37 36 32 32
21 16 24 24 21 16 11 12 12 10 7 6 6 6 8 6 9 10 17 11 19 13 11 5 5 4 3 1 4 4 8 5 6 3 4 10 5 2 7 12 19 24 30 30 31
26 25 25 25 23 20 12 14 12 9 7 6 9 5 8 2 2 3 12 12 8 9 6 7 6 3 4 5 6 4 7 10 8 3 5 9 15 14 20 24 23 26 30 29 29
24 28 24 26 25 23 22 18 8 4 15 10 6 7 1 2 4 3 6 16 10 6 5 3 3 7 10 8 10 4 3 9 4 7 7 12 17 18 19 21 21 26 28 31 34
23 26 20 27 25 29 28 22 15 5 3 24 12 14 5 6 2 4 7 10 6 4 4 0 10 8 5 4 5 8 13 19 13 12 10 13 24 19 17 22 27 25 31 29 36
24 23 24 30 26 35 32 26 19 10 1 5 20 21 12 12 4 7 12 8 4 5 7 7 3 7 9 6 5 6 11 8 14 9 12 12 25 17 18 26 36 35 36 38 34
25 23 23 26 26 38 34 28 17 10 4 4 4 5 12 13 6 20 17 9 2 9 5 8 10 10 5 5 8 13 7 14 13 6 7 3 10 5 4 10 11 22 26 32 38
26 24 27 16 13 42 33 31 20 9 1 3 5 6 9 15 2 2 20 13 7 6 5 5 4 7 14 12 7 4 6 8 10 8 6 8 6 5 5 8 9 9 24 30 34
26 24 21 22 23 40 33 29 21 5 6 6 5 6 6 6 1 4 9 10 2 8 12 11 4 3 6 7 14 3 4 4 3 4 11 11 9 13 7 9 8 10 24 29 31
19 19 20 23 27 40 35 34 4 4 1 6 5 5 6 6 4 4 6 8 5 5 7 4 12 6 4 4 7 9 3 3 5 6 7 6 11 22 6 9 8 10 22 23 25
7 10 18 32 25 40 46 4 4 5 5 7 6 8 6 7 4 4 4 7 10 6 1 2 5 12 12 16 7 17 10 5 5 5 4 5 8 9 9 17 28 29 32 28 20
5 4 13 17 40 41 31 3 7 7 7 8 11 6 6 6 3 7 9 5 7 15 6 4 6 2 5 6 9 5 11 14 5 3 3 5 8 11 9 10 12 11 24 29 28
9 3 9 20 41 43 10 5 3 4 7 5 5 5 6 7 7 7 6 4 6 12 11 1 6 3 3 3 11 8 1 4 6 5 5 6 7 12 9 17 14 11 13 27 25
9 5 4 17 38 23 5 3 3 5 9 4 4 5 4 5 9 5 4 4 6 5 14 6 4 1 5 9 11 8 9 6 3 4 4 4 6 6 11 7 9 16 21 27 28
7 3 14 34 7 3 5 6 5 5 3 2 3 4 6 8 6 8 8 6 9 11 10 9 3 6 15 10 16 18 13 17 7 6 4 3 17 6 5 6 7 13 22 19 23
9 2 34 45 4 3 3 3 4 4 4 3 3 3 6 6 5 8 3 7 13 9 11 9 5 4 4 3 8 10 18 20 19 8 14 4 13 8 12 10 8 7 5 6 16
4 2 6 13 2 11 7 5 4 2 4 4 2 4 5 6 9 3 5 5 19 14 12 16 5 7 12 10 3 6 16 18 17 10 14 16 23 19 15 16 7 5 7 12 17
3 2 4 5 3 8 6 8 9 5 2 9 5 12 7 5 6 7 8 4 4 12 8 7 7 11 21 23 18 12 12 20 19 23 12 11 18 25 18 11 6 13 14 17 20
2 3 9 11 15 9 5 7 11 7 8 5 8 7 11 6 7 8 5 4 5 4 8 5 5 3 17 19 18 24 23 18 21 21 21 20 22 13 10 18 16 12 19 18 22
7 2 7 14 9 8 7 7 11 8 10 12 12 10 10 15 22 22 4 8 4 2 5 3 3 3 9 6 12 5 10 18 13 11 17 15 23 10 13 14 12 14 20 21 23
Wind_Direction
287 300 311 308 285 279 281 286 285 284 278 275 270 225 223 232 242 243 247 257 239 236 236 248 261 258 255 202 190 171 128 226 226 161 230 350 124 241 321 287 315 252 228 205 207
275 284 302 311 298 278 277 282 280 280 279 271 260 235 227 234 247 242 258 237 226 242 234 252 263 273 215 193 187 172 194 235 198 191 242 279 292 297 327 317 322 290 254 250 222
273 278 289 302 300 277 272 273 270 271 274 273 250 229 221 235 264 275 259 249 244 244 245 245 254 244 218 199 203 194 235 276 272 283 293 269 286 279 252 264 265 285 320 302 195
270 268 282 286 299 278 265 265 259 264 267 266 245 232 218 199 226 216 242 243 223 217 224 226 234 187 183 215 217 223 242 236 268 283 301 260 299 303 262 251 250 277 297 290 260
261 268 264 275 289 278 261 253 251 250 255 253 239 236 217 217 232 176 179 196 211 215 211 206 205 174 196 220 269 207 233 261 284 294 281 280 265 264 261 268 267 272 280 270 267
264 255 262 264 276 278 260 248 241 244 243 247 237 227 223 233 252 228 191 147 156 192 215 214 205 211 258 246 191 301 279 274 284 269 279 269 266 259 259 269 267 261 262 268 274
261 254 252 255 256 273 261 241 237 238 234 238 244 234 236 246 245 238 205 189 152 164 200 218 218 192 166 230 311 279 307 297 224 236 246 270 262 237 256 256 255 263 266 267 261
307 251 243 246 248 260 258 235 225 237 228 233 251 251 247 255 236 231 211 210 181 175 166 170 227 224 229 290 313 292 267 302 317 228 231 187 261 300 286 237 235 248 254 256 256
281 291 239 240 240 242 247 218 217 225 217 221 253 257 263 249 245 227 220 201 219 231 235 237 184 193 165 177 285 184 261 255 316 278 261 205 287 255 345 306 256 255 257 253 247
276 276 240 232 233 229 213 202 206 210 209 212 234 274 250 234 192 190 206 201 172 178 179 189 195 179 163 184 224 240 239 257 258 284 353 284 278 284 289 293 283 276 271 267 262
288 282 259 225 227 217 188 184 172 216 205 200 214 214 110 142 164 190 210 179 170 157 170 168 179 207 204 220 244 258 266 267 266 294 316 269 275 275 278 268 266 270 271 270 266
299 276 268 221 225 212 198 182 193 149 208 231 223 234 172 129 145 201 164 161 156 171 122 95 240 222 215 202 227 247 265 266 275 251 261 281 278 276 265 261 257 250 259 262 265
300 292 273 221 223 205 195 199 191 198 67 259 231 229 216 231 243 207 183 181 144 147 190 204 205 205 186 201 212 219 234 252 256 293 270 286 284 265 257 242 246 243 243 254 258
290 289 256 230 221 196 184 189 176 183 60 244 204 234 202 222 278 226 202 172 163 192 189 246 243 243 198 204 192 255 198 240 252 252 255 154 286 238 278 273 239 250 240 238 248
288 283 248 233 242 179 185 191 188 160 11 156 148 151 164 163 138 155 205 194 178 187 160 224 196 208 226 223 173 254 179 213 229 235 273 229 275 278 234 273 270 246 241 239 245
277 268 262 257 222 181 178 169 141 61 244 165 131 174 151 202 177 111 175 200 238 224 228 242 195 197 207 228 213 196 237 266 273 231 248 220 206 263 231 232 230 238 243 242 239
274 259 243 216 184 179 170 147 104 185 52 167 167 166 193 165 205 171 173 190 193 199 223 228 233 214 207 203 189 195 165 217 224 212 251 196 205 248 262 270 255 252 261 257 254
276 225 218 225 196 173 153 123 131 171 184 140 133 143 171 178 213 210 201 221 221 207 282 250 293 197 194 206 179 199 201 221 235 228 255 195 235 250 214 238 255 246 259 274 259
301 239 232 211 180 171 153 171 184 183 164 145 145 160 195 185 176 195 219 226 224 195 203 220 254 2 205 203 176 167 213 221 265 198 241 239 285 285 250 247 262 254 252 254 253
330 244 243 220 172 159 163 175 140 163 124 141 137 186 168 165 180 188 190 220 219 191 189 293 285 199 196 175 259 210 239 176 200 228 234 248 261 250 314 306 287 271 250 259 258
225 166 200 179 166 158 190 115 159 165 127 140 165 152 158 164 195 192 230 269 201 186 175 181 215 323 143 207 200 197 223 217 260 200 201 261 258 215 230 273 294 311 288 256 243
140 125 176 171 150 183 148 163 130 143 91 112 111 110 172 175 202 208 225 230 180 142 181 198 236 232 235 218 208 216 222 214 217 202 232 207 264 217 252 220 359 332 306 257 224
144 138 172 173 148 142 156 99 100 131 173 138 135 179 190 202 217 207 209 244 179 168 173 165 224 294 280 257 233 225 227 226 234 258 232 203 257 188 243 282 355 338 331 169 173
133 110 70 167 144 155 148 138 113 110 143 119 152 176 204 213 210 249 232 262 192 193 188 169 213 221 252 255 201 219 221 216 224 231 237 230 262 272 289 293 313 320 188 168 172
128 149 165 170 223 166 123 154 178 151 178 183 215 229 211 216 215 222 229 272 193 207 181 180 250 235 254 260 252 240 223 216 217 235 238 258 247 269 280 308 266 295 179 166 167
55 187 170 152 153 170 142 175 179 186 178 203 227 207 223 220 219 206 223 165 235 148 163 208 272 269 273 270 255 251 241 221 217 223 242 248 266 272 305 324 313 218 180 180 170
337 241 115 167 155 160 193 178 192 175 194 213 209 219 226 235 235 256 230 274 244 216 216 223 249 269 282 314 293 267 246 226 225 207 208 219 238 284 287 275 287 207 191 183 175
Height
1481 1480 1478 1477 1476 1473 1473 1474 1474 1474 1474 1475 1474 1475 1476 1479 1482 1481 1482 1483 1483 1484 1484 1485 1488 1489 1490 1490 1493 1495 1502 1502 1496 1497 1492 1488 1488 1488 1489 1488 1488 1486 1485 1485 1485
1478 1477 1477 1475 1473 1472 1471 1472 1472 1471 1473 1473 1474 1474 1474 1477 1479 1476 1480 1480 1481 1482 1482 1485 1487 1488 1489 1490 1491 1492 1498 1493 1488 1487 1487 1487 1488 1488 1489 1487 1486 1486 1485 1483 1484
1474 1474 1474 1473 1472 1471 1471 1470 1470 1470 1471 1472 1473 1473 1473 1474 1479 1473 1476 1476 1478 1481 1482 1484 1487 1488 1490 1490 1490 1489 1489 1487 1485 1486 1487 1487 1486 1487 1486 1486 1485 1487 1486 1484 1484
1470 1470 1470 1471 1470 1469 1469 1468 1468 1469 1470 1471 1471 1471 1473 1474 1480 1472 1471 1469 1473 1477 1480 1482 1486 1488 1489 1490 1488 1490 1485 1485 1485 1486 1485 1485 1485 1484 1484 1482 1483 1483 1485 1484 1485
1466 1466 1466 1467 1468 1467 1467 1467 1467 1467 1467 1470 1470 1471 1472 1473 1471 1471 1471 1469 1471 1473 1478 1482 1485 1487 1489 1488 1487 1487 1485 1484 1484 1484 1483 1483 1482 1482 1477 1480 1479 1479 1480 1480 1482
1461 1462 1462 1463 1465 1465 1465 1465 1465 1465 1466 1468 1469 1470 1472 1472 1467 1469 1471 1470 1470 1473 1477 1480 1482 1485 1486 1486 1487 1484 1483 1482 1481 1481 1481 1480 1476 1479 1469 1475 1474 1475 1475 1476 1477
1455 1456 1458 1459 1460 1461 1462 1463 1463 1464 1466 1468 1468 1468 1469 1464 1464 1465 1469 1469 1471 1473 1475 1478 1480 1483 1484 1484 1484 1483 1484 1481 1478 1477 1476 1476 1467 1464 1467 1469 1469 1469 1471 1471 1471
1448 1450 1453 1454 1456 1458 1459 1461 1462 1463 1465 1466 1467 1467 1465 1461 1462 1464 1466 1468 1471 1473 1475 1477 1479 1481 1483 1483 1482 1483 1484 1484 1474 1472 1472 1475 1456 1459 1458 1458 1458 1461 1462 1464 1464
1444 1442 1445 1449 1451 1454 1456 1459 1460 1462 1464 1465 1467 1466 1462 1460 1460 1462 1464 1466 1469 1472 1474 1477 1479 1480 1482 1482 1483 1480 1480 1483 1479 1470 1470 1470 1459 1455 1454 1455 1454 1454 1454 1455 1457
1437 1437 1438 1442 1446 1450 1453 1456 1458 1461 1463 1465 1465 1469 1460 1459 1459 1459 1461 1465 1468 1470 1474 1476 1478 1479 1480 1481 1482 1477 1475 1474 1479 1473 1471 1470 1461 1456 1455 1453 1448 1447 1448 1449 1450
1432 1432 1431 1435 1440 1444 1448 1453 1460 1462 1459 1457 1457 1456 1457 1458 1458 1459 1460 1463 1467 1470 1474 1475 1479 1476 1474 1476 1475 1477 1482 1479 1478 1474 1476 1466 1455 1450 1450 1448 1445 1442 1440 1440 1442
1426 1426 1426 1429 1433 1436 1441 1443 1448 1453 1455 1453 1454 1455 1456 1456 1458 1459 1460 1464 1467 1471 1473 1477 1473 1473 1474 1477 1479 1479 1478 1474 1474 1472 1472 1463 1443 1444 1443 1438 1436 1436 1433 1434 1436
1420 1418 1420 1423 1425 1426 1432 1441 1443 1449 1452 1450 1448 1450 1453 1457 1457 1457 1460 1462 1465 1471 1473 1473 1466 1465 1471 1474 1478 1478 1479 1478 1476 1471 1465 1463 1432 1430 1420 1419 1420 1421 1424 1426 1428
1415 1414 1414 1416 1420 1418 1426 1438 1442 1447 1462 1449 1447 1446 1448 1454 1455 1453 1456 1460 1465 1468 1471 1469 1465 1466 1469 1470 1475 1474 1471 1471 1471 1477 1474 1461 1443 1423 1418 1416 1414 1413 1415 1415 1418
1408 1407 1407 1408 1407 1411 1421 1433 1442 1446 1474 1446 1445 1446 1446 1450 1452 1451 1454 1458 1460 1464 1466 1459 1462 1465 1467 1465 1469 1467 1466 1468 1469 1471 1472 1462 1463 1421 1417 1415 1411 1408 1405 1405 1407
1398 1400 1403 1404 1405 1406 1416 1431 1439 1458 1455 1440 1442 1444 1446 1448 1448 1450 1453 1457 1457 1459 1458 1456 1459 1461 1460 1459 1462 1463 1465 1464 1467 1468 1454 1444 1457 1402 1413 1406 1402 1398 1396 1396 1397
1388 1391 1396 1401 1396 1402 1413 1426 1443 1443 1436 1438 1438 1441 1442 1445 1447 1448 1451 1452 1454 1455 1454 1455 1453 1455 1456 1459 1459 1463 1465 1462 1459 1455 1443 1438 1445 1399 1401 1400 1398 1395 1390 1389 1391
1383 1386 1390 1395 1394 1397 1409 1423 1438 1426 1433 1428 1435 1440 1443 1444 1447 1448 1448 1450 1449 1452 1454 1452 1454 1447 1447 1446 1450 1453 1457 1454 1447 1448 1456 1436 1427 1397 1391 1389 1387 1388 1387 1385 1388
1383 1383 1385 1390 1394 1395 1409 1421 1418 1418 1420 1425 1435 1438 1445 1442 1444 1446 1445 1445 1442 1447 1452 1451 1449 1440 1441 1442 1445 1450 1449 1441 1445 1445 1441 1430 1411 1394 1387 1386 1382 1381 1380 1379 1382
1383 1383 1383 1387 1391 1397 1409 1411 1411 1411 1415 1421 1427 1429 1430 1435 1441 1442 1440 1436 1436 1438 1442 1446 1446 1438 1439 1443 1440 1439 1442 1445 1443 1437 1429 1427 1421 1402 1390 1383 1379 1378 1375 1375 1378
1378 1383 1383 1388 1396 1400 1405 1404 1410 1412 1413 1420 1423 1427 1427 1433 1434 1436 1438 1433 1432 1435 1439 1443 1449 1444 1440 1436 1431 1438 1437 1438 1435 1433 1441 1424 1405 1384 1382 1381 1382 1374 1369 1367 1367
1379 1382 1384 1391 1397 1401 1401 1405 1407 1412 1415 1417 1418 1423 1425 1428 1433 1435 1436 1430 1428 1433 1439 1436 1440 1434 1425 1418 1417 1421 1420 1422 1421 1424 1423 1429 1392 1376 1380 1378 1376 1372 1366 1362 1362
1380 1380 1382 1387 1394 1400 1402 1403 1406 1413 1415 1417 1419 1422 1424 1427 1430 1429 1430 1423 1428 1428 1430 1433 1434 1432 1420 1418 1416 1418 1411 1407 1407 1407 1411 1424 1379 1369 1371 1374 1374 1372 1369 1368 1367
1377 1378 1381 1388 1392 1394 1400 1403 1409 1411 1413 1415 1419 1422 1425 1424 1425 1425 1427 1422 1420 1421 1425 1427 1426 1420 1410 1395 1409 1404 1399 1402 1406 1402 1397 1395 1379 1375 1373 1373 1371 1371 1369 1369 1371
1377 1381 1382 1388 1393 1392 1396 1401 1407 1411 1413 1415 1417 1418 1420 1421 1423 1419 1421 1420 1417 1418 1421 1423 1415 1413 1401 1395 1397 1392 1388 1390 1394 1387 1393 1376 1382 1369 1371 1371 1368 1366 1368 1370 1371
1374 1377 1382 1383 1391 1394 1397 1401 1404 1408 1411 1412 1414 1415 1417 1416 1414 1413 1412 1415 1414 1414 1418 1418 1410 1410 1393 1388 1384 1376 1373 1375 1375 1381 1384 1385 1376 1369 1368 1368 1369 1365 1367 1369 1369
1378 1376 1378 1383 1387 1393 1395 1398 1400 1404 1406 1406 1410 1413 1413 1411 1412 1407 1409 1410 1411 1412 1414 1414 1411 1405 1382 1380 1373 1360 1358 1359 1362 1370 1376 1379 1361 1368 1373 1370 1365 1364 1365 1366 1370